Terminal Aerodrome Forecast
Issued by NWS Wakefield, VA

Home | Current Version | Previous Version | Text Only | Print | Product List | Glossary On
Versions: 1 2 3 4 5 6 7 8 9 10 11 12 13 14 15 16 17 18 19 20 21 22 23 24 25 26 27 28 29 30 31 32 33 34 35 36 37 38
000
FTUS41 KAKQ 260530
TAFECG
TAF
KECG 260530Z 2606/2706 34008KT P6SM BKN006 OVC012
     FM260900 36008KT P6SM OVC004
     FM261400 34008KT P6SM OVC006
     FM261700 33008KT P6SM BKN012
     FM262100 34007KT P6SM BKN020
     FM270100 33005KT P6SM SCT020 BKN040=

USA.gov is the U.S. government's official web portal to all federal, state and local government web resources and services.